Flag for U.S.A. Weather past 2 weeks in Ocala, Florida, U.S.A.

Now
88 °F

Partly sunny.


Feels Like: 93 °F
Forecast: 70 / 86 °F
Wind: No wind

Location: Ocala Municipal

Current Time: Jul 22, 2014 at 1:56:12 PM

Latest Report: Jul 22, 2014 at 12:50 PM


Visibility: 10 mi

Pressure: 30.08 "Hg

Humidity: 55%

Dew point: 70 °F

Location of OcalaLocation

Historic Weather in Ocala — Graph

°F

Ocala temperature yesterday

Maximum temperature yesterday: 82 °F (at 7:55 PM)
Minimum temperature yesterday: 72 °F (at 4:35 AM)
Average temperature yesterday: 75 °F

Past Weeks' High & Low Weather Summary

 TemperatureHumidityPressure
High91 °F (Jul 19, 2:50 PM)100% (Jul 17, 6:50 AM)30.18 "Hg (Jul 17, 6:50 AM)
Low70 °F (Jul 9, 12:55 AM)43% (Jul 18, 1:50 PM)29.90 "Hg (Jul 16, 4:35 AM)
Average76 °F72%30.07 "Hg
* Reported Jul 7 12:50 PM — Jul 22 12:50 PM, Ocala, Weather by CustomWeather, © 2014

Note: Actual official high and low records may vary slightly from our data, if they occured in-between our weather recording intervals... More about our weather records

Advertising

Ocala weather history for previous 24 hours

 ConditionsComfort  
Time TempWeatherWind HumidityBarometerVisibility
12:50 PM
Jul 22
88 °FPartly sunny.No wind55%30.08 "Hg10 mi
11:50 AM86 °FPartly sunny.No wind59%30.08 "Hg10 mi
10:50 AM84 °FScattered clouds.No wind62%30.09 "Hg10 mi
9:50 AM81 °FScattered clouds.5 mph70%30.09 "Hg10 mi
8:50 AM79 °FPassing clouds.No wind70%30.09 "Hg10 mi
7:50 AM73 °FPassing clouds.No wind89%30.08 "Hg10 mi
6:50 AM73 °FPassing clouds.No wind94%30.06 "Hg10 mi
6:35 AM73 °FPassing clouds.No wind74%30.05 "Hg10 mi
6:15 AM73 °FPassing clouds.No wind74%30.05 "Hg10 mi
5:55 AM73 °FLow clouds.No wind74%30.05 "Hg10 mi
5:35 AM73 °FLow clouds.No wind74%30.04 "Hg10 mi
4:55 AM73 °FLow clouds.No wind74%30.03 "Hg10 mi
4:35 AM72 °FPassing clouds.No wind78%30.03 "Hg10 mi
4:15 AM73 °FClear.No wind74%30.03 "Hg10 mi
3:55 AM73 °FClear.3 mph74%30.03 "Hg10 mi
3:35 AM72 °FClear.No wind78%30.03 "Hg10 mi
3:15 AM72 °FClear.No wind78%30.04 "Hg10 mi
2:55 AM73 °FClear.No wind74%30.04 "Hg10 mi
2:35 AM73 °FClear.No wind74%30.05 "Hg10 mi
2:15 AM73 °FClear.No wind74%30.05 "Hg10 mi
1:55 AM73 °FClear.No wind74%30.04 "Hg10 mi
1:35 AM73 °FClear.3 mph74%30.05 "Hg10 mi
1:15 AM73 °FClear.3 mph74%30.05 "Hg10 mi
12:55 AM73 °FClear.No wind74%30.06 "Hg10 mi
12:35 AM73 °FPassing clouds.No wind74%30.07 "Hg10 mi
12:15 AM73 °FPassing clouds.3 mph78%30.08 "Hg10 mi
11:55 PM
Jul 21
73 °FClear.No wind74%30.09 "Hg10 mi
11:35 PM73 °FClear.No wind78%30.09 "Hg10 mi
10:55 PM73 °FClear.No wind78%30.10 "Hg10 mi
10:35 PM73 °FClear.No wind78%30.09 "Hg7 mi
10:15 PM73 °FClear.No wind78%30.09 "Hg10 mi
9:55 PM73 °FPartly cloudy.No wind74%30.09 "Hg10 mi
9:35 PM75 °FMostly cloudy.5 mph69%30.10 "Hg10 mi
9:15 PM77 °FBroken clouds.8 mph69%30.10 "Hg10 mi
8:55 PM79 °FThundershowers. Broken clouds.3 mph65%30.07 "Hg10 mi
8:35 PM81 °FScattered clouds.6 mph62%30.07 "Hg10 mi
8:15 PM81 °FSunny.6 mph62%30.07 "Hg10 mi
7:55 PM82 °FSunny.8 mph58%30.06 "Hg10 mi
Weather by CustomWeather, © 2014

See weather overviewHow to use our weather pages